TimeEST,TemperatureF,Dew PointF,Humidity,Sea Level PressureIn,VisibilityMPH,Wind Direction,Wind SpeedMPH,Gust SpeedMPH,PrecipitationIn,Events,Conditions,WindDirDegrees,DateUTC
12:15 AM,44.6,44.6,100,30.12,1.2,Calm,Calm,-,N/A,,Clear,0,2013-01-21 05:15:00
12:35 AM,44.6,44.6,100,30.12,1.5,Calm,Calm,-,N/A,,Clear,0,2013-01-21 05:35:00
12:55 AM,44.6,44.6,100,30.12,1.5,Calm,Calm,-,N/A,,Clear,0,2013-01-21 05:55:00
1:15 AM,44.6,44.6,100,30.12,1.2,Calm,Calm,-,N/A,,Clear,0,2013-01-21 06:15:00
1:35 AM,42.8,42.8,100,30.12,1.0,Calm,Calm,-,N/A,,Clear,0,2013-01-21 06:35:00
1:55 AM,44.6,44.6,100,30.12,1.2,Calm,Calm,-,N/A,,Clear,0,2013-01-21 06:55:00
2:15 AM,44.6,44.6,100,30.11,1.2,Calm,Calm,-,N/A,,Clear,0,2013-01-21 07:15:00
2:35 AM,42.8,42.8,100,30.11,1.5,Calm,Calm,-,N/A,,Clear,0,2013-01-21 07:35:00
2:55 AM,44.6,44.6,100,30.10,1.0,Calm,Calm,-,N/A,,Clear,0,2013-01-21 07:55:00
3:15 AM,44.6,44.6,100,30.10,1.8,Calm,Calm,-,N/A,,Clear,0,2013-01-21 08:15:00
3:35 AM,44.6,44.6,100,30.09,2.0,Calm,Calm,-,N/A,,Clear,0,2013-01-21 08:35:00
3:55 AM,44.6,44.6,100,30.09,1.5,Calm,Calm,-,N/A,,Clear,0,2013-01-21 08:55:00
4:15 AM,42.8,42.8,100,30.08,2.0,Calm,Calm,-,N/A,,Clear,0,2013-01-21 09:15:00
4:35 AM,42.8,42.8,100,30.08,2.5,Calm,Calm,-,N/A,,Clear,0,2013-01-21 09:35:00
4:55 AM,42.8,42.8,100,30.08,0.5,Calm,Calm,-,N/A,Fog,Fog,0,2013-01-21 09:55:00
5:15 AM,42.8,42.8,100,30.08,1.2,Calm,Calm,-,N/A,,Clear,0,2013-01-21 10:15:00
5:35 AM,44.6,44.6,100,30.08,1.8,Calm,Calm,-,N/A,,Mostly Cloudy,0,2013-01-21 10:35:00
5:55 AM,44.6,44.6,100,30.08,1.8,Calm,Calm,-,N/A,,Mostly Cloudy,0,2013-01-21 10:55:00
6:15 AM,44.6,44.6,100,30.09,1.8,Calm,Calm,-,N/A,,Overcast,0,2013-01-21 11:15:00
6:35 AM,44.6,44.6,100,30.10,1.5,Calm,Calm,-,N/A,,Mostly Cloudy,0,2013-01-21 11:35:00
6:50 AM,44.6,44.6,100,30.10,2.0,Calm,Calm,-,N/A,,Mostly Cloudy,0,2013-01-21 11:50:00
7:50 AM,46.4,46.4,100,30.11,7.0,Calm,Calm,-,N/A,,Mostly Cloudy,0,2013-01-21 12:50:00
8:50 AM,51.8,50.0,94,30.13,7.0,Calm,Calm,-,N/A,,Mostly Cloudy,0,2013-01-21 13:50:00
9:50 AM,55.4,48.2,77,30.14,7.0,Calm,Calm,-,N/A,,Mostly Cloudy,0,2013-01-21 14:50:00
10:50 AM,60.8,46.4,59,30.14,7.0,NNW,5.8,-,N/A,,Mostly Cloudy,340,2013-01-21 15:50:00
11:50 AM,64.4,46.4,52,30.14,2.0,Variable,5.8,-,N/A,,Smoke,0,2013-01-21 16:50:00
12:05 PM,66.2,46.4,49,30.12,5.0,Variable,5.8,-,N/A,,Smoke,0,2013-01-21 17:05:00
12:50 PM,66.2,46.4,49,30.09,7.0,Variable,5.8,-,N/A,,Mostly Cloudy,0,2013-01-21 17:50:00
1:50 PM,68.0,46.4,46,30.07,10.0,NNW,6.9,-,N/A,,Clear,330,2013-01-21 18:50:00
2:50 PM,68.0,44.6,43,30.05,10.0,NNW,4.6,-,N/A,,Clear,330,2013-01-21 19:50:00
3:50 PM,66.2,46.4,49,30.05,10.0,Variable,3.5,-,N/A,,Clear,0,2013-01-21 20:50:00
6:50 PM,53.6,50.0,88,30.07,10.0,Calm,Calm,-,N/A,,Clear,0,2013-01-21 23:50:00
7:50 PM,50.0,48.2,94,30.08,10.0,Calm,Calm,-,N/A,,Clear,0,2013-01-22 00:50:00
8:15 PM,50.0,48.2,94,30.09,10.0,Calm,Calm,-,N/A,,Clear,0,2013-01-22 01:15:00
8:35 PM,50.0,48.2,94,30.09,10.0,Calm,Calm,-,N/A,,Clear,0,2013-01-22 01:35:00
8:55 PM,48.2,46.4,93,30.10,10.0,Calm,Calm,-,N/A,,Clear,0,2013-01-22 01:55:00
9:35 PM,50.0,44.6,82,30.11,10.0,NNW,5.8,-,N/A,,Clear,330,2013-01-22 02:35:00
9:55 PM,53.6,44.6,72,30.11,10.0,Calm,Calm,-,N/A,,Clear,0,2013-01-22 02:55:00
10:15 PM,48.2,44.6,87,30.12,10.0,Calm,Calm,-,N/A,,Clear,0,2013-01-22 03:15:00
10:35 PM,50.0,42.8,76,30.13,10.0,Calm,Calm,-,N/A,,Clear,0,2013-01-22 03:35:00
10:55 PM,48.2,42.8,82,30.12,10.0,Calm,Calm,-,N/A,,Clear,0,2013-01-22 03:55:00
11:15 PM,46.4,42.8,87,30.12,10.0,Calm,Calm,-,N/A,,Clear,0,2013-01-22 04:15:00
11:35 PM,44.6,42.8,93,30.12,10.0,Calm,Calm,-,N/A,,Clear,0,2013-01-22 04:35:00
11:55 PM,44.6,42.8,93,30.11,10.0,Calm,Calm,-,N/A,,Clear,0,2013-01-22 04:55:00